TimeCDT,TemperatureF,Dew PointF,Humidity,Sea Level PressureIn,VisibilityMPH,Wind Direction,Wind SpeedMPH,Gust SpeedMPH,PrecipitationIn,Events,Conditions,WindDirDegrees,DateUTC
12:54 AM,73.9,68.0,82,29.92,10.0,South,11.5,-,N/A,,Clear,170,2013-09-19 05:54:00
1:54 AM,73.9,68.0,82,29.93,10.0,South,11.5,-,N/A,,Clear,180,2013-09-19 06:54:00
2:54 AM,73.0,68.0,84,29.92,10.0,SSE,9.2,-,N/A,,Clear,160,2013-09-19 07:54:00
3:54 AM,73.0,66.9,81,29.92,10.0,SSE,10.4,-,N/A,,Clear,160,2013-09-19 08:54:00
4:54 AM,73.0,66.9,81,29.93,10.0,South,11.5,-,N/A,,Overcast,170,2013-09-19 09:54:00
5:54 AM,72.0,66.9,84,29.93,10.0,South,10.4,-,0.00,,Clear,170,2013-09-19 10:54:00
6:54 AM,72.0,66.9,84,29.94,10.0,South,9.2,-,N/A,,Partly Cloudy,170,2013-09-19 11:54:00
7:54 AM,73.0,66.9,81,29.94,9.0,South,10.4,-,N/A,,Clear,170,2013-09-19 12:54:00
8:54 AM,75.0,66.9,76,29.94,10.0,South,11.5,-,N/A,,Clear,180,2013-09-19 13:54:00
9:54 AM,78.1,66.9,68,29.95,10.0,South,9.2,-,N/A,,Clear,190,2013-09-19 14:54:00
10:54 AM,82.0,66.9,60,29.95,10.0,SSW,11.5,-,N/A,,Mostly Cloudy,200,2013-09-19 15:54:00
11:54 AM,86.0,69.1,57,29.94,10.0,SSW,13.8,-,N/A,,Clear,200,2013-09-19 16:54:00
12:54 PM,86.0,68.0,55,29.93,10.0,SSW,16.1,-,N/A,,Partly Cloudy,200,2013-09-19 17:54:00
1:54 PM,84.0,69.1,61,29.91,10.0,South,8.1,-,N/A,,Partly Cloudy,180,2013-09-19 18:54:00
2:54 PM,87.1,70.0,57,29.89,10.0,South,12.7,-,N/A,,Clear,190,2013-09-19 19:54:00
3:54 PM,89.1,69.1,52,29.86,10.0,South,10.4,-,N/A,,Clear,190,2013-09-19 20:54:00
4:54 PM,88.0,69.1,53,29.82,10.0,South,16.1,-,N/A,,Clear,180,2013-09-19 21:54:00
5:54 PM,87.1,69.1,55,29.81,10.0,South,13.8,-,N/A,,Partly Cloudy,190,2013-09-19 22:54:00
6:54 PM,82.9,69.1,63,29.82,10.0,South,9.2,-,N/A,,Clear,170,2013-09-19 23:54:00
7:54 PM,82.0,70.0,67,29.83,10.0,South,12.7,-,N/A,,Scattered Clouds,170,2013-09-20 00:54:00
8:54 PM,82.0,70.0,67,29.89,10.0,WSW,8.1,19.6,N/A,,Mostly Cloudy,240,2013-09-20 01:54:00
9:54 PM,75.0,66.9,76,29.92,10.0,NNW,16.1,26.5,N/A,,Mostly Cloudy,330,2013-09-20 02:54:00
10:07 PM,73.0,66.0,79,29.95,10.0,NW,11.5,23.0,N/A,Thunderstorm,Mostly Cloudy,320,2013-09-20 03:07:00
10:29 PM,72.0,66.0,81,29.95,10.0,NNW,11.5,-,N/A,Thunderstorm,Overcast,330,2013-09-20 03:29:00
10:39 PM,70.0,66.9,90,29.96,8.0,North,6.9,19.6,0.00,Rain,Light Rain,360,2013-09-20 03:39:00
10:54 PM,70.0,66.9,90,29.92,9.0,NW,8.1,-,0.02,Rain,Light Rain,320,2013-09-20 03:54:00
11:54 PM,69.1,66.9,93,29.91,10.0,North,4.6,-,0.08,Thunderstorm,Overcast,360,2013-09-20 04:54:00